GEFSGL_con_maxscp_264.txt.gz
SCP
3 3 3 3 3 3 2 2 2 1 1 1 1 2 2 2 2 2 2 2 1 1 1 1 1 1 1 1 1 1 1 1 1 1 1 0 0 0 0 0 0 0 0
3 3 3 4 4 3 3 3 2 2 2 1 2 2 3 3 2 2 2 2 1 1 1 1 1 1 1 1 1 1 1 1 1 1 0 0 0 0 0 0 0 0 0
4 4 4 5 5 5 4 4 3 3 2 2 2 3 3 3 3 3 2 2 2 1 1 1 1 1 1 1 1 1 1 1 1 0 0 0 0 0 0 0 0 0 0
6 6 5 6 6 6 5 5 4 4 3 3 3 3 3 3 3 3 2 2 1 1 1 1 1 1 1 1 1 1 1 1 0 0 0 0 0 0 0 0 0 0 0
8 7 6 7 7 6 6 5 5 4 4 3 3 3 3 2 2 2 2 2 1 1 1 1 1 1 1 1 1 1 1 0 0 0 0 0 0 0 0 0 0 0 0
10 9 7 7 7 7 6 5 5 5 4 4 3 3 2 2 1 1 1 1 1 1 1 2 2 2 1 1 1 1 1 0 0 0 0 0 0 0 0 0 0 0 0
11 9 7 7 7 7 6 6 5 5 5 4 4 3 3 2 1 1 1 1 1 1 1 2 2 2 2 2 1 1 1 0 0 1 1 1 0 0 0 0 0 0 0
10 9 7 7 7 7 6 6 5 5 5 4 4 4 3 2 1 1 1 1 1 1 1 1 1 1 1 1 1 1 1 1 0 0 0 0 0 0 0 0 0 0 0
9 9 8 8 8 7 7 6 5 5 4 4 4 4 3 2 1 1 1 1 1 1 1 1 1 1 1 1 1 1 1 1 0 0 0 0 0 0 0 0 0 0 0
11 12 11 10 9 8 8 7 6 5 4 4 4 3 3 2 2 1 1 1 1 1 1 1 1 1 1 1 1 1 1 1 0 0 0 0 0 0 0 0 0 0 0
16 16 14 12 10 9 9 9 8 6 5 5 4 4 3 3 2 1 1 2 1 1 1 1 1 0 0 0 1 1 1 1 0 0 0 0 0 0 0 0 0 0 0
18 16 13 11 10 9 9 9 9 8 6 5 4 4 4 4 3 2 1 1 1 1 1 1 1 0 0 0 0 1 1 1 0 0 0 0 0 0 0 0 0 0 0
15 13 11 11 11 11 10 9 10 9 7 5 5 5 5 5 3 2 1 1 1 1 1 1 1 0 0 0 0 0 0 1 1 1 1 1 0 0 0 0 0 0 0
13 12 11 12 12 12 10 10 10 10 9 7 6 6 6 6 4 3 2 2 1 1 1 1 0 0 0 0 0 1 1 1 1 1 1 1 0 0 0 0 0 0 0
12 12 12 12 12 11 9 8 9 10 10 8 7 8 8 7 5 4 3 2 1 1 1 1 1 1 0 0 1 1 1 1 1 1 1 1 1 0 0 0 0 0 0
9 10 11 12 11 9 7 6 7 8 8 6 6 6 7 7 5 3 1 1 1 1 1 1 1 1 1 1 1 1 1 1 1 1 1 1 1 1 0 0 0 0 0
7 7 9 10 11 8 5 4 5 6 5 4 3 3 4 4 3 1 0 0 0 0 1 2 2 2 1 1 1 1 1 1 1 1 1 1 1 0 0 0 0 0 0
4 5 6 7 8 7 5 4 4 5 6 5 3 1 1 1 1 0 0 0 0 0 1 1 2 2 2 2 2 2 2 2 2 1 1 1 1 0 0 0 0 0 0
2 2 3 3 4 6 6 4 3 5 7 7 6 3 1 0 0 0 0 0 1 1 1 1 2 2 3 3 3 3 3 3 2 2 2 2 2 1 0 0 0 0 0
1 2 2 2 3 4 5 5 3 4 5 7 7 5 2 1 1 0 0 1 1 1 1 1 1 2 3 4 4 4 4 3 2 2 2 2 2 1 1 0 0 0 0
3 3 3 2 3 4 5 5 3 3 4 6 7 6 3 2 1 1 1 1 2 2 1 1 1 1 2 2 3 3 3 3 2 2 2 2 1 1 1 0 0 0 0
3 3 3 3 3 3 3 3 3 2 3 5 6 5 3 2 2 2 1 1 2 2 2 2 1 1 1 1 2 2 2 2 1 1 1 1 0 0 0 0 0 0 0
2 2 2 2 2 2 2 2 2 2 3 4 6 5 2 1 2 1 1 1 1 1 2 2 2 2 2 1 1 2 2 1 1 1 0 0 0 0 0 0 0 0 0
1 1 1 1 1 1 1 1 1 1 3 4 5 5 2 1 1 1 1 1 1 1 1 1 1 1 1 1 1 1 1 1 0 0 0 0 0 0 0 0 0 0 0
1 1 0 0 0 0 0 0 0 1 3 4 5 4 2 1 1 1 1 1 1 1 1 1 1 0 0 0 0 0 0 0 0 0 0 0 0 0 0 0 0 0 0
0 0 0 0 0 0 0 0 0 1 2 4 5 4 2 1 1 1 1 1 0 0 0 0 0 0 0 0 0 0 0 0 0 0 0 0 0 0 0 0 0 0 0

GEFSGL_con_maxscp_270.txt.gz
SCP
1 1 1 1 1 1 2 2 2 2 2 2 2 2 2 2 2 2 1 1 1 1 1 1 1 1 1 1 1 1 1 1 1 1 1 1 1 1 1 1 1 1 1
1 1 1 1 1 1 2 2 2 2 2 2 2 2 2 2 2 1 1 1 1 1 1 1 1 1 1 1 1 1 1 1 1 1 1 1 1 0 1 1 0 0 0
1 1 1 1 1 1 1 2 2 2 2 3 3 2 2 2 1 1 1 1 1 1 1 1 1 1 1 1 1 1 1 1 1 1 1 1 0 0 0 0 0 0 0
2 2 2 2 1 1 1 2 2 2 3 3 3 2 2 1 1 1 1 1 1 1 1 1 1 1 1 1 1 1 1 1 1 1 1 1 0 0 0 0 0 0 0
2 2 2 2 2 2 2 2 2 3 3 3 4 3 2 2 1 1 1 1 1 1 1 1 1 1 1 1 1 1 2 2 1 1 1 1 0 0 0 0 0 0 0
3 3 3 3 3 3 3 3 3 3 4 4 4 4 3 2 2 2 1 1 1 1 1 1 1 1 1 1 1 1 1 1 1 1 1 1 1 0 0 0 0 0 0
3 4 4 4 4 4 4 4 4 4 5 5 5 5 4 3 2 2 1 1 1 2 1 1 1 1 1 1 1 1 1 1 1 1 1 1 1 0 0 0 0 0 0
4 4 5 5 6 5 5 5 5 5 5 6 6 6 5 4 3 2 1 1 1 2 2 1 1 1 1 1 1 1 1 0 0 0 0 0 0 0 0 0 0 0 0
5 5 5 6 7 7 7 6 6 6 6 6 5 5 5 5 4 3 2 1 1 1 2 1 1 1 1 1 1 1 1 0 0 0 0 0 0 0 0 0 0 0 0
5 5 6 7 8 8 7 7 6 6 6 5 4 4 5 5 5 3 2 2 2 1 2 2 1 1 1 1 1 1 1 1 1 0 0 0 0 0 0 0 0 0 0
5 6 7 8 8 7 7 6 6 6 5 4 4 4 4 5 5 3 2 2 2 2 2 2 1 1 1 0 0 1 1 1 1 1 0 0 0 0 0 0 0 0 0
5 6 8 8 8 8 8 7 7 6 6 5 4 4 4 4 4 4 2 2 2 3 3 2 2 1 0 0 0 0 0 1 1 1 1 1 1 1 1 0 0 0 0
4 6 8 9 10 10 10 9 8 8 8 7 6 5 4 5 5 4 2 1 2 3 3 3 2 1 0 0 0 0 0 1 1 1 1 1 1 1 1 1 1 0 0
5 6 8 10 11 12 11 11 10 10 10 10 8 6 6 6 5 5 4 2 1 2 3 2 1 0 0 0 1 1 1 1 1 2 2 2 1 1 1 1 1 1 1
5 7 9 11 12 12 12 11 10 10 10 9 8 7 7 7 6 6 5 3 2 2 2 1 1 1 1 1 1 1 1 1 1 1 2 2 2 1 1 1 1 1 1
6 7 11 13 14 14 14 11 8 7 6 5 5 5 6 6 5 5 4 2 1 1 1 2 2 2 1 1 1 1 1 1 1 1 1 2 2 2 1 1 1 1 0
5 6 10 13 15 15 13 9 5 3 2 2 2 2 3 3 2 2 1 1 0 0 1 2 2 3 3 2 2 2 1 1 1 1 1 1 1 1 1 1 1 1 1
4 4 6 10 12 11 9 6 4 2 1 1 1 1 1 1 0 0 0 0 1 1 1 2 2 3 3 4 4 3 2 2 2 1 1 1 1 1 2 2 1 1 1
3 3 3 5 7 7 5 4 3 2 1 1 1 0 0 0 0 0 0 1 1 1 2 2 2 2 2 3 4 4 3 2 2 2 1 1 1 1 2 2 2 1 1
2 1 2 2 4 4 4 3 2 1 1 1 0 0 0 0 1 1 1 2 2 3 3 2 2 2 2 2 3 3 3 2 2 2 1 1 1 1 1 2 2 2 1
1 1 1 1 2 2 2 2 1 0 0 0 0 0 0 0 1 1 1 2 2 3 3 3 3 2 2 2 2 2 2 2 2 2 1 1 1 1 1 1 1 1 1
1 1 1 1 1 1 1 1 1 1 0 0 0 0 0 0 0 0 1 2 2 2 3 4 3 3 2 2 2 2 1 1 1 2 2 1 1 1 1 1 1 1 1
2 1 1 1 1 0 0 1 1 1 1 1 0 0 0 0 0 0 1 1 2 2 3 4 4 3 3 2 2 1 1 1 1 1 1 1 1 1 1 1 1 1 1
1 1 1 1 0 0 0 1 1 2 2 1 1 0 0 0 0 0 0 1 2 3 3 4 4 4 3 2 2 1 1 1 1 1 1 1 1 1 1 1 0 0 0
1 1 1 1 0 0 0 1 1 2 2 2 1 0 0 0 0 0 0 0 1 2 3 4 4 4 3 2 1 0 0 0 0 0 0 0 0 0 0 0 0 0 0
1 1 1 1 0 0 0 0 1 1 2 1 1 0 0 0 0 0 0 0 1 2 3 4 4 4 3 2 1 0 0 0 0 0 0 0 0 0 0 0 0 0 0

GEFSGL_con_maxscp_276.txt.gz
SCP
7 6 4 3 2 2 2 2 2 2 2 2 2 2 2 1 1 1 1 2 2 2 2 2 2 2 2 2 2 2 2 2 2 2 1 2 2 1 1 1 1 1 1
7 5 4 3 2 2 2 2 2 2 2 2 2 2 2 2 2 1 1 1 2 2 1 2 2 2 2 2 2 2 2 2 2 1 2 2 2 2 2 1 1 1 1
5 4 3 2 2 2 2 2 2 2 2 2 3 2 2 2 1 1 1 2 2 1 1 2 2 2 2 2 2 2 2 2 2 2 2 2 2 2 2 1 1 1 1
3 3 2 2 3 3 3 3 3 3 3 2 2 2 2 1 1 2 2 2 2 2 2 2 2 2 2 2 2 2 2 2 2 2 2 2 2 2 2 2 2 2 2
2 2 3 3 3 4 4 4 3 3 2 2 2 2 2 2 2 2 2 3 3 3 3 3 3 3 2 2 2 2 2 2 2 2 2 2 2 2 2 2 2 2 2
3 3 4 4 5 5 5 4 4 3 3 2 2 2 2 3 3 3 3 3 4 4 4 3 3 3 3 2 1 1 1 1 2 2 2 2 2 2 2 2 2 2 2
5 5 5 6 6 6 6 5 4 4 3 3 3 3 3 3 4 4 4 4 5 5 4 4 3 3 4 3 2 1 1 1 1 2 2 2 2 2 2 2 2 1 1
6 6 6 7 7 6 6 5 5 4 4 5 5 5 4 4 3 3 4 4 5 6 5 4 3 3 4 3 2 2 2 2 1 1 1 1 1 2 2 2 2 2 1
8 8 8 8 8 7 6 5 5 5 5 6 7 7 7 5 3 2 3 4 5 6 7 6 4 3 3 3 3 3 3 3 2 1 1 1 1 1 2 2 2 2 2
10 10 10 10 9 8 7 6 5 5 6 7 8 8 9 7 4 2 3 5 6 7 8 7 5 4 3 2 3 3 3 3 2 1 1 1 2 2 2 2 2 3 3
10 11 12 11 10 9 8 7 6 6 6 7 8 9 9 8 4 2 3 6 8 8 8 8 6 4 2 2 2 3 3 2 2 2 2 2 3 3 3 3 3 3 3
12 13 12 10 9 8 7 7 7 6 6 7 8 9 9 8 5 2 2 5 8 8 8 7 6 3 1 1 2 2 2 2 2 2 2 2 3 3 3 3 4 4 4
15 15 13 10 7 6 6 6 7 7 8 8 9 9 9 8 7 4 2 2 5 6 6 5 4 2 1 1 1 1 1 2 2 2 2 2 2 3 4 4 4 4 4
14 13 11 9 7 6 6 6 7 8 10 11 12 12 13 13 11 8 4 3 4 5 6 5 3 2 2 3 2 2 2 2 2 2 2 2 2 3 3 4 5 5 4
10 9 8 8 7 7 6 6 7 8 10 12 14 15 16 16 13 9 6 5 5 6 7 6 5 5 6 5 4 3 3 3 3 2 2 2 2 2 3 4 5 5 5
8 7 6 6 8 8 6 6 7 8 7 8 10 12 13 13 9 5 4 4 4 5 7 7 6 6 7 6 5 4 4 4 3 2 2 2 2 2 2 3 4 4 4
6 6 5 5 7 8 8 7 9 9 6 5 5 6 7 6 3 1 1 1 2 3 6 6 5 5 5 5 4 4 4 4 4 3 2 2 2 2 2 2 2 2 2
5 5 4 4 5 7 8 9 10 9 6 3 2 2 2 2 1 0 0 1 1 3 4 5 4 4 4 4 4 5 4 4 4 4 3 3 3 3 2 2 2 2 2
5 4 4 4 4 5 6 7 8 7 4 3 2 2 1 1 1 1 1 1 2 3 3 4 3 2 2 3 4 5 5 5 5 5 4 3 3 3 2 2 2 2 2
5 4 4 4 4 4 4 5 5 4 3 2 2 2 1 1 1 1 2 2 3 4 4 3 2 1 1 2 4 5 5 5 5 5 5 4 3 3 2 2 2 2 2
5 4 4 4 4 4 3 3 3 3 2 2 2 2 1 1 2 2 2 3 4 4 4 3 1 1 1 1 3 4 5 5 5 6 5 4 3 3 2 2 2 2 3
5 4 4 4 4 3 3 3 3 3 3 3 3 1 1 1 2 2 2 3 4 4 3 2 1 1 0 1 2 3 4 4 5 5 5 4 3 3 2 2 2 2 2
5 5 4 4 3 2 3 4 4 3 3 2 2 1 1 1 1 1 2 2 3 3 2 2 1 1 1 1 1 3 4 4 4 5 4 4 3 3 2 2 1 1 2
5 5 4 3 2 2 2 3 3 3 2 2 1 1 1 1 1 1 1 2 2 2 2 2 2 1 1 1 1 2 3 3 4 4 4 3 3 2 2 1 1 1 1
4 5 5 4 2 2 2 2 2 2 2 1 1 1 1 1 1 1 1 1 1 2 2 2 2 2 2 1 1 1 1 2 2 3 4 3 3 2 1 1 1 1 2
4 5 5 4 3 2 2 2 1 1 1 1 1 1 1 1 1 1 1 1 1 1 1 2 2 2 2 2 1 1 1 1 1 2 3 3 2 1 1 1 1 1 1

GEFSGL_con_maxscp_282.txt.gz
SCP
6 6 6 6 6 5 5 4 4 4 4 4 4 4 3 2 2 2 1 1 1 2 2 2 2 1 1 1 1 1 1 1 1 1 1 1 2 2 2 2 2 2 2
4 4 5 4 4 4 4 4 4 4 4 4 4 3 3 2 2 2 1 1 1 2 2 2 2 1 1 1 1 1 1 1 1 1 1 1 2 2 2 2 2 2 2
4 4 4 4 4 4 4 4 4 4 4 4 4 3 3 2 2 2 1 1 2 2 3 3 2 2 1 1 1 1 1 1 1 2 1 1 1 2 2 2 2 1 1
5 6 6 5 5 5 5 5 4 4 4 4 4 3 2 2 1 2 2 2 2 3 3 3 3 2 2 2 2 1 1 1 1 2 1 1 1 1 2 2 2 1 1
6 7 8 7 6 6 5 5 5 4 5 5 4 3 2 1 1 1 2 2 3 4 4 4 3 2 2 2 1 2 2 2 1 1 1 1 2 2 2 1 1 1 1
8 8 9 8 7 6 6 5 5 5 5 5 4 3 2 2 1 1 1 2 3 4 4 4 3 2 2 2 1 1 2 2 1 1 1 1 2 2 2 2 1 1 1
11 11 10 10 9 8 7 6 6 5 6 6 5 4 3 2 1 1 1 2 2 3 4 4 3 3 2 2 2 1 1 1 1 1 1 1 2 2 3 2 2 2 2
13 13 12 11 10 9 8 7 7 7 6 6 5 4 4 3 2 1 1 1 2 3 4 4 3 3 3 3 2 2 2 2 1 1 1 2 2 2 3 3 3 3 3
13 14 14 13 12 11 10 10 9 9 8 7 6 5 5 4 3 2 1 2 3 4 4 4 4 3 3 3 3 3 3 3 2 1 1 1 2 2 2 3 4 4 3
13 15 16 16 15 14 13 12 12 12 10 8 7 7 6 4 3 2 2 3 4 5 5 5 5 4 3 3 4 5 5 4 3 2 2 2 2 2 2 3 3 3 3
15 16 17 18 18 16 15 14 14 13 11 9 9 8 7 5 4 3 2 3 4 5 6 6 5 4 2 2 4 6 6 5 5 4 3 3 2 2 3 3 4 4 4
17 17 17 17 16 15 15 14 14 14 13 11 11 10 9 7 6 4 2 2 4 5 6 5 5 3 1 1 3 4 5 5 5 5 4 4 3 3 3 4 5 5 5
17 16 17 17 15 14 14 14 14 14 14 13 13 13 11 9 7 6 3 2 2 3 4 4 3 2 1 1 1 3 4 5 6 6 5 5 4 4 4 5 5 5 5
22 21 21 19 18 17 16 14 14 13 12 12 13 12 11 9 8 7 6 4 3 3 4 4 3 2 2 2 3 3 5 7 8 7 7 5 5 5 6 6 6 6 6
30 26 22 19 19 19 16 13 11 9 8 8 8 8 8 8 7 7 7 7 6 6 6 7 7 6 7 8 8 9 10 10 9 8 7 6 5 6 6 6 6 6 6
25 21 16 15 16 16 14 11 7 5 3 3 4 4 4 5 6 5 5 6 7 7 7 9 10 11 13 16 17 17 15 12 9 8 8 6 5 5 6 5 5 5 5
14 12 10 11 11 11 11 9 6 4 3 2 1 1 2 2 3 3 2 3 4 5 8 10 12 15 19 23 25 23 17 12 8 8 9 9 8 6 5 5 4 4 4
9 8 7 7 8 8 8 7 6 5 4 3 2 1 1 1 1 1 2 3 4 7 10 12 14 17 21 24 25 20 14 9 6 6 10 12 10 7 5 4 3 3 4
7 7 6 6 6 6 6 6 5 5 5 4 3 2 1 0 0 0 3 8 11 11 12 14 15 18 20 19 17 11 7 4 3 4 7 10 9 7 5 3 2 2 3
7 7 6 5 5 5 5 6 5 5 5 4 3 2 2 1 1 1 4 11 15 14 13 14 15 16 15 13 9 4 2 1 2 2 4 6 6 6 5 3 2 2 2
8 7 6 5 4 4 4 4 4 4 4 4 3 3 2 1 1 2 4 10 15 15 14 15 15 14 11 8 4 2 1 1 1 2 3 4 5 4 4 3 3 2 2
8 7 6 5 5 4 4 4 4 4 4 3 3 3 2 1 1 2 4 7 10 12 14 15 15 13 9 5 3 1 1 1 1 1 2 3 3 3 3 3 2 2 2
7 6 6 6 5 4 4 3 3 4 4 4 3 3 2 1 1 1 2 4 6 8 10 11 12 10 6 3 2 1 1 1 2 2 2 2 2 2 2 2 2 2 2
5 6 6 6 5 5 4 3 3 3 3 3 3 3 2 1 1 1 1 2 3 4 5 6 6 5 3 2 2 1 1 1 2 2 2 1 1 1 1 1 1 2 2
7 7 8 6 5 4 4 4 3 3 3 3 3 2 1 1 1 1 1 1 1 2 3 2 2 1 1 1 1 1 1 1 1 1 1 1 1 1 1 1 1 1 1
10 9 8 6 5 4 4 4 4 4 4 3 2 2 2 1 1 1 1 1 1 1 1 1 1 1 1 1 1 1 0 0 0 1 1 1 1 1 1 1 1 1 1